Starlink 35136

operational
NORAD ID: 65537 Int'l Des: 2025-200 Owner: SPXS Country: US Constellation: starlink
LEOCIRCULARRETROGRADE

Über Starlink 35136

Beschreibung wird geladen...

Live-Position

3D-Globus wird geladen...

Nächste Überflüge

Höhenverlauf

Altitude vs Time

uPlot chart will show altitude changes over time

Zweizeiliger Elementsatz

1 65537U 25200T 25354.43923073 .00002308 00000-0 16410-3 0 9993
2 65537 97.6037 61.6413 0001614 90.5794 269.5617 15.05651739 17115
Epoch: 20. Dez. 2025 • Age: 10 hours

Aktueller Status

Höhe 552.6 km
Geschwindigkeit 7.59 km/s
Subsatellitenpunkt -0.11°S, 30.72°E
Startdatum 6. Sept. 2025
Alter 0.2 years
Typ internet

Technische Details

Klassifizierung Payload
Masse 575.00 kg
Trockenmasse 530.00 kg
Gesamtmasse 575.00 kg
Länge 0.30 m
Durchmesser 4.10 m
Spannweite 29.00 m
Form Box + pan
Hersteller SPXS
Bus-Typ Starlink V2MO
Phasenstatus In Orbit
Besitzer/Staat SPXS/US

Große Konstellationen

Loading constellations...